Погода в Верхнечеренском

Россия / Волгоградская область     49°13′04″N   42°40′43″E
темп.,
°C
ветер,
м/с
пор.,
м/с
влажн.,
%
обл.,
%
осадки,
мм/ч
давл.,
гПа
погр.,
м
17 мая, пн
пн1700:00+19юв51345100 0.0 1011211
03:00+18вюв4114899 0.0 1010163
06:00+17вюв5144964 0.0 1010240
09:00+24вюв7123769 0.0 1010513
12:00+28юв8143399 0.0 10101671
15:00+30юв7122883 0.0 10092628
18:00+26вюв5113779 0.0 1008262
21:00+20вюв511407 0.0 1009150
18 мая, вт
вт1800:00+18вюв494011 0.0 1009114
03:00+17вюв493993 0.0 1008104
06:00+17вюв31049100 0.0 1008193
09:00+22юв4639100 0.0 1008340
12:00+24юв4535100 0.0 1008855
15:00+27ю583299 0.0 10081362
18:00+22зюз695981 0.0 1008424
21:00+17з3776100 0.0 1010251
19 мая, ср
ср1900:00+16зюз247798 0.0 1010109
03:00+16зсз2382100 0.1 100962
06:00+16зсз358488 0.1 1009197
09:00+21сз3361100 0.1 1008625
12:00+24сз2252100 0.0 10081380
15:00+25юз444889 0.0 10081626
18:00+17зюз7107893 1.3 1009670
21:00+14зюз6118783 3.2 1009484
20 мая, чт
чт2000:00+13юз4109780 0.1 1010339
03:00+11ююз5109512 0.1 1012352
06:00+12ю6109481 0.0 1012464
09:00+13ююз6108780 0.1 1013777
12:00+17ююз7966100 0.1 10141457
15:00+19зюз785774 0.5 10141702
18:00+18юз576526 0.1 1014998
21:00+14зюз338336 0.3 101536
21 мая, пт
пт2100:00+13ююз228323 0.0 101617
03:00+12ююв228485 0.0 101510
06:00+14юв24815 0.0 1016116
09:00+20ююв4558100 0.0 1016843
12:00+23ююв4549100 0.0 10151405
15:00+25ю5641100 0.0 10151809
18:00+24ююв1153100 0.0 101540
21:00+20в345669 0.0 101555